Location: LDNL
(36.4545°S, 141.6685°E)
Time: 18:58:36
(UTC+10:00)

Tiros 1 despin weight - Pass Details

Date: 23 January 2022
Orbit: 592 x 639 km, 48.2° (Epoch: 28 May)

Event Time Altitude Azimuth Distance (km) Brightness Sun altitude
Exits shadow 05:05:55 - 15° (NNE) 2,352 ? -16.6°
Reaches altitude 10° 05:08:08 10° 38° (NE) 1,982 ? -16.3°
Maximum altitude 05:09:12 11° 52° (NE) 1,932 ? -16.1°
Drops below altitude 10° 05:10:16 10° 65° (ENE) 1,980 ? -16.0°
Sets 05:14:27 0° 103° (ESE) 2,881 ? -15.3°
